| time (UTC) | temp F | wind direction | speed MPH | gust MPH | rain 1hr in | rain 24hr in | rain mn in | humidity % | barometer mb |
| 20260505010019 | 64 | 223 | 1.0 | 4.0 | 0.00 | 0.00 | 0.00 | 68 | 1011.2 |
| 20260505004518 | 64 | 181 | 0.0 | 3.0 | 0.00 | 0.00 | 0.00 | 68 | 1011.1 |
| 20260505003014 | 64 | 178 | 1.0 | 3.0 | 0.00 | 0.00 | 0.00 | 68 | 1011.0 |
| 20260505001514 | 65 | 178 | 0.0 | 3.0 | 0.00 | 0.00 | 0.00 | 67 | 1011.1 |
| 20260505000015 | 66 | 176 | 0.0 | 2.0 | 0.00 | 0.00 | 0.00 | 65 | 1010.9 |
| 20260504234512 | 67 | 176 | 0.0 | 3.0 | 0.00 | 0.00 | 0.00 | 63 | 1011.0 |
| 20260504233012 | 68 | 165 | 0.0 | 5.0 | 0.00 | 0.00 | 0.00 | 61 | 1010.8 |
| 20260504231509 | 68 | 127 | 1.0 | 3.0 | 0.00 | 0.00 | 0.00 | 59 | 1010.9 |
| 20260504230010 | 69 | 242 | 1.0 | 7.0 | 0.00 | 0.00 | 0.00 | 56 | 1010.9 |
| 20260504224508 | 69 | 155 | 2.0 | 12.0 | 0.00 | 0.00 | 0.00 | 53 | 1010.8 |
| 20260504223007 | 69 | 110 | 2.0 | 11.0 | 0.00 | 0.00 | 0.00 | 51 | 1010.9 |
| 20260504221510 | 70 | 93 | 5.0 | 10.0 | 0.00 | 0.00 | 0.00 | 48 | 1010.9 |
| 20260504220007 | 70 | 173 | 6.0 | 15.0 | 0.00 | 0.00 | 0.00 | 47 | 1010.9 |
| 20260504214505 | 71 | 162 | 5.0 | 13.0 | 0.00 | 0.00 | 0.00 | 48 | 1010.9 |
| 20260504213004 | 71 | 154 | 5.0 | 13.0 | 0.00 | 0.00 | 0.00 | 47 | 1011.0 |
| 20260504211513 | 71 | 240 | 4.0 | 13.0 | 0.00 | 0.00 | 0.00 | 48 | 1011.0 |
| 20260504210003 | 71 | 155 | 3.0 | 13.0 | 0.00 | 0.00 | 0.00 | 47 | 1011.0 |
| 20260504204501 | 72 | 146 | 5.0 | 10.0 | 0.00 | 0.00 | 0.00 | 45 | 1011.1 |
| 20260504203001 | 72 | 187 | 3.0 | 16.0 | 0.00 | 0.00 | 0.00 | 46 | 1011.0 |
| 20260504201559 | 73 | 109 | 4.0 | 13.0 | 0.00 | 0.00 | 0.00 | 44 | 1011.1 |
| 20260504200059 | 76 | 211 | 4.0 | 11.0 | 0.00 | 0.00 | 0.00 | 39 | 1011.3 |
| 20260504194555 | 75 | 162 | 4.0 | 13.0 | 0.00 | 0.00 | 0.00 | 37 | 1011.4 |
| 20260504193053 | 75 | 230 | 3.0 | 11.0 | 0.00 | 0.00 | 0.00 | 38 | 1011.8 |
| 20260504191553 | 75 | 236 | 3.0 | 6.0 | 0.00 | 0.00 | 0.00 | 40 | 1012.1 |
| 20260504190053 | 74 | 166 | 4.0 | 12.0 | 0.00 | 0.00 | 0.00 | 39 | 1012.2 |
| 20260504184545 | 71 | 107 | 5.0 | 13.0 | 0.00 | 0.00 | 0.00 | 49 | 1012.4 |
| 20260504183042 | 72 | 163 | 1.0 | 9.0 | 0.00 | 0.00 | 0.00 | 46 | 1012.6 |
| 20260504181540 | 72 | 147 | 5.0 | 15.0 | 0.00 | 0.00 | 0.00 | 44 | 1012.8 |
| 20260504180039 | 71 | 111 | 5.0 | 13.0 | 0.00 | 0.00 | 0.00 | 47 | 1013.0 |
| 20260504174538 | 72 | 192 | 2.0 | 9.0 | 0.00 | 0.00 | 0.00 | 44 | 1013.1 |
| 20260504173039 | 72 | 235 | 4.0 | 12.0 | 0.00 | 0.00 | 0.00 | 39 | 1013.4 |
| 20260504171537 | 72 | 206 | 2.0 | 5.0 | 0.00 | 0.00 | 0.00 | 42 | 1013.6 |
| 20260504081547 | 53 | 194 | 2.0 | 7.0 | 0.00 | 0.00 | 0.00 | 62 | 1016.0 |
| 20260504044525 | 49 | 236 | 0.0 | 2.0 | 0.00 | 0.00 | 0.00 | 65 | 1016.5 |
| 20260504043023 | 50 | 236 | 0.0 | 4.0 | 0.00 | 0.00 | 0.00 | 61 | 1016.4 |
| 20260504041536 | 51 | 235 | 0.0 | 4.0 | 0.00 | 0.00 | 0.00 | 58 | 1016.5 |
| 20260504040022 | 50 | 236 | 1.0 | 4.0 | 0.00 | 0.00 | 0.00 | 59 | 1016.5 |
| 20260504034516 | 49 | 242 | 1.0 | 6.0 | 0.00 | 0.00 | 0.00 | 60 | 1016.4 |
| 20260504033017 | 48 | 231 | 0.0 | 3.0 | 0.00 | 0.00 | 0.00 | 65 | 1016.3 |
| 20260504031517 | 47 | 279 | 0.0 | 3.0 | 0.00 | 0.00 | 0.00 | 68 | 1016.1 |
| 20260504030016 | 46 | 294 | 0.0 | 2.0 | 0.00 | 0.00 | 0.00 | 71 | 1016.1 |
| 20260504024516 | 46 | 294 | 0.0 | 2.0 | 0.00 | 0.00 | 0.00 | 71 | 1016.1 |
| 20260504023015 | 47 | 294 | 0.0 | 2.0 | 0.00 | 0.00 | 0.00 | 70 | 1016.1 |
| 20260504021515 | 47 | 327 | 0.0 | 0.0 | 0.00 | 0.00 | 0.00 | 71 | 1016.1 |
| 20260504020021 | 47 | 327 | 0.0 | 0.0 | 0.00 | 0.00 | 0.00 | 68 | 1016.0 |
| 20260504014513 | 48 | 327 | 0.0 | 2.0 | 0.00 | 0.00 | 0.00 | 67 | 1016.0 |
| 20260504013140 | 48 | 327 | 0.0 | 2.0 | 0.00 | 0.00 | 0.00 | 66 | 1015.9 |
| 20260504011512 | 49 | 327 | 0.0 | 1.0 | 0.00 | 0.00 | 0.00 | 62 | 1015.7 |